Mount Pleasant, MI

9:24 AM EST on February 12, 2016 (GMT -0500)
Mount Pleasant Municipal

Weather History for KMOP - June, 2013

Change the Weather History Date:

Thursday, June 20, 2013

  Actual Average (KAMN) Record (KAMN)
Temperature  
Mean Temperature 64 °F -  
Max Temperature 80 °F 78 °F 98 °F (1953)
Min Temperature 47 °F 55 °F 41 °F (2003)
Degree Days  
Heating Degree Days 2    
Growing Degree Days 14 (Base 50)    
Moisture  
Dew Point 49 °F    
Average Humidity 62    
Maximum Humidity 96    
Minimum Humidity 28    
Precipitation  
Precipitation 0.00 in - - ()
Sea Level Pressure  
Sea Level Pressure 30.17 in    
Wind  
Wind Speed 1 mph (East)    
Max Wind Speed 6 mph    
Max Gust Speed -    
Visibility 9 miles    
Events Fog    
Averages and records for this station are not official NWS values.
T = Trace of Precipitation, MM = Missing Value Source: NWS Daily Summary

Daily Weather History Graph

Daily Weather History Graph

Search for Another Location

Airport or City:

Trip Planner

Search our weather history database for the weather conditions in past years. The results will help you decide how hot, cold, wet, or windy it might be!

Date:

Astronomy

Jun. 20, 2013 Rise Set
Actual Time 5:57 AM EDT 9:23 PM EDT
Civil Twilight 5:21 AM EDT 9:59 PM EDT
Nautical Twilight 4:34 AM EDT 10:46 PM EDT
Astronomical Twilight 3:34 AM EDT 11:46 PM EDT
Moon 6:21 PM EDT (6/20) 3:27 AM EDT (6/20)
Length of Visible Light 16h 38m
Length of Day
15h 26m
Waxing Gibbous, 89% of the Moon is Illuminated
Jun 20
Waxing Gibbous
Jun 23
Full
Jun 30
Last Quarter
Jul 8
New
Jul 15
First Quarter

Hourly Weather History & Observations

Time (EDT) Temp. Dew Point Humidity Pressure Visibility Wind Dir Wind Speed Gust Speed Precip Events Conditions
12:15 AM 57.6 °F 49.1 °F 73% 30.15 in 10.0 mi Calm Calm - N/A   Clear
12:35 AM 53.4 °F 49.6 °F 87% 30.15 in 10.0 mi Calm Calm - N/A   Clear
12:56 AM 52.7 °F 49.8 °F 90% 30.15 in 10.0 mi Calm Calm - N/A   Clear
1:15 AM 52.9 °F 50.2 °F 91% 30.15 in 10.0 mi Calm Calm - N/A   Clear
1:35 AM 52.7 °F 50.2 °F 91% 30.15 in 10.0 mi Calm Calm - N/A   Clear
1:56 AM 51.1 °F 48.9 °F 92% 30.15 in 10.0 mi Calm Calm - N/A   Clear
2:15 AM 51.3 °F 49.3 °F 93% 30.14 in 10.0 mi Calm Calm - N/A   Clear
2:35 AM 51.8 °F 49.5 °F 92% 30.14 in 10.0 mi Calm Calm - N/A   Clear
2:55 AM 51.1 °F 49.3 °F 94% 30.14 in 10.0 mi Calm Calm - N/A   Clear
3:15 AM 50.7 °F 49.3 °F 95% 30.14 in 5.0 mi Calm Calm - N/A   Clear
3:36 AM 49.8 °F 48.4 °F 95% 30.14 in 5.0 mi Calm Calm - N/A   Clear
3:55 AM 50.0 °F 48.4 °F 94% 30.15 in 10.0 mi Calm Calm - N/A   Clear
4:15 AM 50.2 °F 49.1 °F 96% 30.16 in 7.0 mi Calm Calm - N/A   Clear
4:36 AM 49.6 °F 48.2 °F 95% 30.16 in 5.0 mi Calm Calm - N/A   Clear
4:55 AM 49.6 °F 48.4 °F 95% 30.16 in 5.0 mi Calm Calm - N/A   Clear
5:15 AM 48.2 °F 46.9 °F 95% 30.16 in 0.5 mi Calm Calm - N/A Fog Fog
5:36 AM 48.2 °F 46.9 °F 95% 30.16 in 0.5 mi Calm Calm - N/A Fog Fog
5:55 AM 48.9 °F 47.7 °F 95% 30.17 in 1.5 mi Calm Calm - N/A   Mist
6:15 AM 47.5 °F 46.4 °F 96% 30.17 in 2.5 mi Calm Calm - N/A   Clear
6:36 AM 48.7 °F 47.7 °F 96% 30.18 in 4.0 mi Calm Calm - N/A   Clear
6:55 AM 49.8 °F 48.7 °F 96% 30.18 in 7.0 mi Calm Calm - N/A   Clear
7:15 AM 51.6 °F 50.5 °F 96% 30.18 in 10.0 mi Calm Calm - N/A   Clear
7:36 AM 53.6 °F 52.3 °F 95% 30.19 in 10.0 mi Calm Calm - N/A   Clear
7:55 AM 54.7 °F 53.2 °F 95% 30.19 in 10.0 mi Calm Calm - N/A   Clear
8:15 AM 56.1 °F 54.0 °F 92% 30.19 in 10.0 mi Calm Calm - N/A   Clear
8:36 AM 58.3 °F 55.6 °F 91% 30.19 in 10.0 mi Calm Calm - N/A   Clear
8:55 AM 61.9 °F 54.1 °F 76% 30.19 in 10.0 mi Calm Calm - N/A   Clear
9:16 AM 64.4 °F 53.2 °F 67% 30.20 in 10.0 mi Calm Calm - N/A   Clear
9:36 AM 65.7 °F 53.1 °F 64% 30.20 in 10.0 mi Calm Calm - N/A   Clear
9:55 AM 67.3 °F 52.2 °F 58% 30.20 in 10.0 mi Calm Calm - N/A   Clear
10:16 AM 69.1 °F 53.2 °F 57% 30.19 in 10.0 mi Calm Calm - N/A   Clear
10:36 AM 70.5 °F 51.1 °F 50% 30.19 in 10.0 mi Calm Calm - N/A   Clear
10:55 AM 72.0 °F 52.0 °F 49% 30.19 in 10.0 mi Calm Calm - N/A   Clear
11:16 AM 72.5 °F 49.1 °F 44% 30.20 in 10.0 mi Calm Calm - N/A   Clear
11:36 AM 73.4 °F 46.4 °F 38% 30.20 in 10.0 mi Calm Calm - N/A   Clear
11:56 AM 74.1 °F 46.0 °F 37% 30.20 in 10.0 mi Calm Calm - N/A   Clear
12:17 PM 74.8 °F 47.3 °F 38% 30.20 in 10.0 mi East 3.5 mph - N/A   Clear
12:36 PM 76.6 °F 45.0 °F 32% 30.20 in 10.0 mi WSW 4.6 mph - N/A   Clear
12:56 PM 76.8 °F 44.4 °F 32% 30.21 in 10.0 mi Calm Calm - N/A   Clear
1:17 PM 76.5 °F 44.4 °F 32% 30.20 in 10.0 mi North 3.5 mph - N/A   Clear
1:36 PM 77.0 °F 44.1 °F 31% 30.19 in 10.0 mi Calm Calm - N/A   Clear
1:57 PM 77.5 °F 44.1 °F 30% 30.18 in 10.0 mi Calm Calm - N/A   Clear
2:16 PM 77.9 °F 44.1 °F 30% 30.18 in 10.0 mi West 4.6 mph - N/A   Clear
2:37 PM 77.7 °F 42.8 °F 29% 30.18 in 10.0 mi Calm Calm - N/A   Clear
2:57 PM 79.0 °F 44.1 °F 29% 30.18 in 10.0 mi North 4.6 mph - N/A   Clear
3:16 PM 79.3 °F 43.3 °F 28% 30.18 in 10.0 mi Calm Calm - N/A   Clear
3:37 PM 79.0 °F 43.5 °F 28% 30.18 in 10.0 mi Calm Calm - N/A   Clear
3:56 PM 79.2 °F 43.9 °F 29% 30.18 in 10.0 mi Calm Calm - N/A   Clear
4:17 PM 79.3 °F 43.5 °F 28% 30.17 in 10.0 mi Calm Calm - N/A   Clear
4:37 PM 79.9 °F 44.6 °F 29% 30.17 in 10.0 mi Calm Calm - N/A   Clear
4:56 PM 80.1 °F 45.7 °F 30% 30.16 in 10.0 mi East 3.5 mph - N/A   Clear
5:17 PM 79.9 °F 45.7 °F 30% 30.16 in 10.0 mi Calm Calm - N/A   Clear
5:37 PM 79.9 °F 46.2 °F 30% 30.16 in 10.0 mi Calm Calm - N/A   Clear
5:56 PM 80.1 °F 44.4 °F 28% 30.15 in 10.0 mi Calm Calm - N/A   Clear
6:17 PM 79.9 °F 45.0 °F 29% 30.15 in 10.0 mi SE 3.5 mph - N/A   Clear
6:37 PM 79.9 °F 45.1 °F 29% 30.15 in 10.0 mi SSE 3.5 mph - N/A   Clear
6:56 PM 79.7 °F 45.1 °F 29% 30.15 in 10.0 mi East 5.8 mph - N/A   Clear
7:17 PM 79.7 °F 44.6 °F 29% 30.15 in 10.0 mi East 3.5 mph - N/A   Clear
7:37 PM 78.8 °F 47.8 °F 34% 30.14 in 10.0 mi East 3.5 mph - N/A   Clear
7:56 PM 78.1 °F 48.6 °F 35% 30.14 in 10.0 mi ESE 5.8 mph - N/A   Clear
8:17 PM 76.6 °F 50.9 °F 40% 30.14 in 10.0 mi ESE 4.6 mph - N/A   Clear
8:37 PM 74.3 °F 53.2 °F 48% 30.15 in 10.0 mi East 3.5 mph - N/A   Clear
8:56 PM 72.7 °F 53.4 °F 51% 30.15 in 10.0 mi ESE 3.5 mph - N/A   Clear
9:17 PM 68.4 °F 54.9 °F 62% 30.16 in 10.0 mi Calm Calm - N/A   Clear
9:37 PM 66.7 °F 55.9 °F 68% 30.16 in 10.0 mi Calm Calm - N/A   Clear
9:56 PM 64.6 °F 57.2 °F 77% 30.16 in 10.0 mi Calm Calm - N/A   Clear
10:17 PM 63.7 °F 55.0 °F 73% 30.16 in 10.0 mi Calm Calm - N/A   Clear
10:37 PM 62.6 °F 54.9 °F 76% 30.17 in 10.0 mi Calm Calm - N/A   Clear
10:57 PM 61.7 °F 56.1 °F 82% 30.18 in 10.0 mi Calm Calm - N/A   Clear
11:17 PM 61.7 °F 54.5 °F 77% 30.18 in 10.0 mi Calm Calm - N/A   Clear
11:37 PM 60.4 °F 55.4 °F 83% 30.18 in 10.0 mi Calm Calm - N/A   Clear
11:57 PM 61.2 °F 52.0 °F 72% 30.18 in 10.0 mi Calm Calm - N/A   Clear